Location: White Rock
(35.8256°N, 106.1876°W)
Time: 20:05:06
(UTC-06:00)

OTV 5 (USA 277) - Visible Passes

Search period start: 24 September 2018 00:00
Search period end: 04 October 2018 00:00
Orbit: 387 x 394 km, 54.5° (Epoch: 08 September)

Date Brightness Start Highest point End Pass type
(mag) Time Alt. Az. Time Alt. Az. Time Alt. Az.
25 Sep ? 06:06:50 10° SSW 06:09:53 44° SE 06:12:57 10° ENE visible
26 Sep ? 05:12:23 14° SSE 05:13:43 17° SE 05:15:55 10° E visible
27 Sep ? 05:51:20 25° SW 05:53:02 77° NW 05:56:14 10° NE visible
28 Sep ? 04:57:42 29° E 04:57:42 29° E 04:59:45 10° ENE visible
28 Sep ? 06:30:36 10° W 06:32:49 17° NW 06:35:01 10° N visible
29 Sep ? 05:36:21 34° NW 05:36:21 34° NW 05:39:14 10° NNE visible
30 Sep ? 04:42:28 15° NE 04:42:28 15° NE 04:43:05 10° NE visible
30 Sep ? 06:15:36 10° NW 06:16:14 10° NNW 06:16:54 10° NNW visible
01 Oct ? 05:20:53 15° N 05:20:53 15° N 05:21:59 10° NNE visible
